Location: Spangle
(47.4302°N, 117.3779°W)
Time: 11:58:38
(UTC+00:00)

ISS - Pass Details

Date: 25 April 2026
Orbit: 414 x 424 km, 51.6° (Epoch: 11 May)

Event Time Altitude Azimuth Distance (km) Brightness Sun altitude
Exits shadow 12:03:11 - 272° (W) 1,796 -1.1 -6.9°
Reaches altitude 10° 12:03:56 10° 275° (W) 1,500 -1.5 -6.8°
Maximum altitude 12:07:11 44° 349° (N) 592 -2.8 -6.3°
Drops below altitude 10° 12:10:27 10° 64° (ENE) 1,509 1.0 -5.8°
Sets 12:12:37 0° 71° (ENE) 2,376 2.6 -5.5°
